RH
58 66 68 19 15 15 15 16 18 21 44 67 77 83 95 90 87 82 81 82 83 84 83 79 83 82 85 84 84 84 80 78 80
27 47 24 15 14 14 13 14 17 27 54 71 79 90 87 89 89 93 85 82 82 88 82 84 88 87 88 97 84 82 89 89 88
17 19 17 15 15 14 14 17 20 35 63 88 97 90 92 93 95 92 94 90 83 84 84 94 96 95 94 99 82 66 62 71 96
15 15 14 14 15 14 15 19 22 45 81 95 97 94 88 86 87 86 99 98 96 91 85 90 99 94 86 81 74 69 65 60 63
13 14 14 14 15 15 18 21 27 76 89 93 92 85 85 80 69 62 87 99 98 91 94 95 87 81 73 54 43 40 43 34 35
13 14 14 16 16 18 19 21 31 71 85 83 85 84 82 78 51 66 96 96 98 99 99 98 96 74 38 25 26 26 29 25 22
16 16 16 16 16 17 19 22 30 48 72 79 79 81 81 68 45 63 93 94 96 94 97 95 96 65 27 22 21 22 28 29 26
17 16 16 16 17 19 22 26 33 47 62 70 69 70 62 38 42 44 57 94 94 96 96 100 96 56 24 20 21 21 22 22 24
16 17 18 18 18 21 26 36 49 54 63 69 60 51 43 30 31 30 40 81 94 97 96 98 97 63 30 28 27 27 28 28 28
19 19 19 22 23 26 26 34 52 63 60 56 49 48 44 29 25 20 19 20 34 75 82 83 96 83 52 35 34 34 34 35 35
20 20 21 22 24 28 32 40 58 62 58 64 59 48 41 35 23 20 21 23 26 28 30 34 51 81 80 49 38 38 38 39 40
21 21 22 25 27 29 33 40 48 53 60 64 65 49 39 37 32 27 27 29 30 31 32 33 36 39 45 44 40 40 40 40 41
24 23 21 21 25 31 35 38 42 50 56 56 57 54 46 40 35 33 33 35 34 34 35 36 38 39 40 41 41 41 41 42 43
22 22 21 20 22 29 35 40 42 47 57 55 58 58 58 52 45 40 36 36 36 37 38 39 40 41 40 40 41 43 44 44 41
20 21 21 21 21 25 32 39 57 62 67 65 63 66 62 56 58 57 47 40 40 41 42 42 43 42 41 41 45 44 35 24 17
21 22 21 22 23 24 29 34 45 69 73 68 75 80 80 75 76 65 61 52 45 47 48 47 46 44 42 44 39 25 19 13 7
22 22 22 22 25 25 26 29 34 52 66 72 61 71 80 86 94 78 65 63 52 53 51 49 46 44 45 34 22 18 12 6 4
22 23 23 24 26 25 26 28 31 34 46 48 49 63 58 73 87 72 63 65 58 52 52 52 52 52 44 24 14 11 9 7 6
22 22 22 23 24 26 26 26 28 30 31 42 47 48 50 71 64 70 68 66 64 60 60 60 61 58 38 15 11 13 12 10 7
21 22 22 23 23 24 25 28 27 28 32 30 32 40 44 53 49 59 69 70 70 67 62 64 57 38 22 14 18 18 15 12 10
Wind_Speed
19 18 18 19 20 20 21 21 22 24 25 23 20 17 19 19 19 18 18 16 17 18 19 18 18 18 17 16 17 18 18 17 17
18 18 18 18 19 19 19 20 22 24 24 22 20 17 16 15 15 17 16 16 16 17 16 18 16 15 13 15 15 15 17 17 17
18 17 17 17 18 18 19 20 22 23 23 22 18 14 13 12 13 12 14 15 14 14 11 13 13 12 11 13 12 11 9 10 12
17 16 16 16 16 17 18 20 22 24 22 20 17 16 12 10 7 9 15 15 15 12 9 8 11 9 7 6 7 7 6 5 4
16 15 15 15 15 16 18 19 22 24 21 18 14 13 7 5 7 12 14 13 13 11 9 7 7 8 6 6 6 7 7 6 6
15 14 15 14 15 16 17 19 22 23 24 15 11 9 7 3 7 14 13 13 13 13 11 12 13 12 8 9 10 10 10 10 9
15 15 15 15 15 16 17 19 21 21 19 13 9 4 1 3 6 12 14 13 13 13 13 13 14 13 13 13 13 13 13 12 12
15 15 15 15 15 16 17 19 20 18 16 12 9 6 3 3 7 9 12 13 13 13 13 14 14 13 14 13 13 13 13 13 13
16 16 16 16 16 15 14 15 15 13 12 11 8 5 5 7 8 9 10 13 14 14 12 14 12 12 12 12 12 12 12 12 13
15 15 15 16 15 13 13 15 16 13 11 11 7 5 6 8 8 8 8 9 10 12 11 11 11 11 11 11 11 11 11 12 12
14 15 14 14 14 13 14 15 15 13 12 11 7 5 6 7 8 8 8 7 7 8 8 8 8 9 10 10 10 10 10 11 11
14 14 15 15 15 15 14 14 14 14 13 11 9 6 5 6 7 7 7 6 5 5 5 6 6 6 6 8 9 10 11 11 12
15 15 15 15 15 15 15 14 15 13 12 11 9 8 5 5 5 4 4 4 3 3 3 3 3 4 6 7 9 10 11 12 13
16 15 15 15 16 16 15 15 13 14 13 11 10 8 6 5 3 2 2 2 1 1 0 1 2 4 7 8 10 11 12 14 14
17 16 16 17 17 17 17 16 15 12 11 10 9 8 7 7 6 5 4 4 4 4 4 4 5 7 8 11 12 14 15 16 17
18 17 18 18 17 16 16 17 17 17 15 13 12 9 7 9 9 7 5 6 6 7 6 7 8 11 13 14 16 16 17 18 19
19 18 18 18 17 18 17 17 18 19 19 15 11 9 10 13 12 12 10 8 8 8 9 10 11 14 16 18 20 20 20 20 21
21 20 20 20 19 18 17 18 17 18 20 17 10 7 8 13 15 14 11 10 8 9 11 13 15 18 22 23 23 22 22 22 20
21 21 21 20 19 19 18 18 17 17 18 19 18 11 8 9 9 14 11 9 7 8 12 15 17 20 23 25 25 24 23 22 23
22 21 21 21 20 19 19 19 18 17 16 18 17 17 14 13 10 9 13 11 10 12 14 16 20 22 25 24 23 24 24 23 24
Wind_Direction
121 119 119 120 120 120 121 120 119 120 119 119 113 106 99 100 99 89 82 84 79 78 79 77 79 80 81 81 76 74 68 68 64
125 125 123 122 122 122 121 119 121 122 123 118 114 111 116 115 108 97 94 87 89 88 86 91 88 81 80 76 79 77 83 82 79
126 126 125 123 123 121 119 119 121 126 126 121 110 110 116 120 109 103 98 92 95 90 96 96 96 91 81 73 64 64 60 69 76
129 127 126 125 122 122 122 122 124 129 128 122 114 117 115 127 128 114 106 105 96 92 69 73 77 79 69 54 36 27 20 33 62
134 132 130 129 126 123 122 122 127 130 122 118 127 138 136 132 105 94 93 102 109 108 87 76 64 71 58 39 28 27 32 38 47
134 134 133 132 129 127 126 126 130 132 129 141 135 145 125 84 93 95 88 91 92 99 97 74 76 72 65 60 61 59 56 53 51
140 139 138 136 134 132 131 131 135 140 141 147 136 139 91 26 108 98 96 88 92 89 87 79 74 73 70 66 64 61 58 55 52
145 145 143 141 138 138 137 136 139 141 139 154 169 180 181 124 122 109 105 98 95 93 89 85 76 71 68 64 60 57 54 50 47
151 149 147 146 146 147 145 146 145 143 147 176 183 166 118 115 114 114 113 107 100 94 89 85 80 69 65 59 53 49 45 42 39
159 162 159 156 158 153 145 148 149 151 151 158 174 148 122 117 114 114 108 99 103 103 96 87 78 66 57 52 46 40 34 29 25
171 169 167 162 160 157 152 155 157 160 162 158 171 157 127 122 121 119 113 105 98 93 87 81 76 68 52 38 32 28 23 18 14
183 179 175 173 169 167 163 159 167 164 166 168 175 183 155 137 133 130 127 118 105 95 84 74 68 56 41 24 15 11 7 2 358
189 185 179 177 174 175 172 169 167 170 173 170 165 167 173 159 160 153 142 125 121 113 93 73 51 32 16 5 359 355 351 346 341
191 187 184 181 179 177 178 173 177 172 171 176 171 178 185 199 196 203 217 187 195 217 274 338 345 346 348 343 343 337 333 330 326
197 191 189 187 184 182 181 180 174 175 176 177 178 176 192 214 219 206 228 255 246 255 263 290 298 313 328 325 330 325 323 322 319
199 196 194 193 191 188 188 185 183 183 186 184 182 189 199 215 241 249 243 239 256 263 273 290 297 307 316 320 321 321 320 316 314
203 201 199 198 196 194 192 196 189 190 191 196 190 194 209 213 232 252 258 260 273 266 282 290 300 309 315 321 322 322 322 316 316
205 202 202 201 199 202 198 197 202 201 199 199 191 187 214 206 217 229 247 265 269 282 288 299 309 317 319 320 318 318 321 319 318
211 210 208 207 206 207 208 207 206 207 211 209 212 218 215 191 201 218 229 247 267 276 283 293 304 310 312 314 314 319 321 317 318
216 215 213 214 210 209 212 216 215 216 216 218 220 223 220 218 220 210 216 225 234 249 267 284 297 303 307 307 309 315 316 316 317